Flag for Pakistan Weather past 2 weeks in Islamabad, Pakistan

Now
50 °F

Clear.


Feels Like: 46 °F
Forecast: 35 / 64 °F
Wind: 9 mph from Northwest

Location: Islamabad Airport

Current Time: Jan 30, 2015 at 10:07:56 PM

Latest Report: Jan 30, 2015 at 9:00 PM


Visibility: 3 mi

Pressure: 30.15 "Hg

Humidity: 54%

Dew point: 34 °F

Location of IslamabadLocation

Historic Weather in Islamabad — Graph

°F

Islamabad temperature yesterday

Maximum temperature yesterday: 61 °F (at 1:00 PM)
Minimum temperature yesterday: 41 °F (at 7:00 AM)
Average temperature yesterday: 51 °F

Past Weeks' High & Low Weather Summary

 TemperatureHumidityPressure
High68 °F (Jan 16, 3:00 PM)100% (Jan 21, 8:00 AM)30.27 "Hg (Jan 21, 8:00 AM)
Low36 °F (Jan 28, 7:00 AM)28% (Jan 17, 4:00 PM)29.98 "Hg (Jan 28, 4:00 PM)
Average51 °F71%30.14 "Hg
* Reported Jan 15 9:00 PM — Jan 30 9:00 PM, Islamabad, Weather by CustomWeather, © 2014

Note: Actual official high and low records may vary slightly from our data, if they occured in-between our weather recording intervals... More about our weather records

Advertising

Islamabad weather history for previous 24 hours

 ConditionsComfort  
Time TempWeatherWind HumidityBarometerVisibility
9:00 PM
Jan 30
50 °FClear.9 mph54%30.15 "Hg3 mi
8:00 PM52 °FClear.9 mph50%30.15 "Hg3 mi
7:00 PM55 °FClear.14 mph44%30.12 "Hg3 mi
6:00 PM57 °FHaze.18 mph41%30.12 "Hg3 mi
5:00 PM59 °FSunny.18 mph39%30.12 "Hg10 mi
4:00 PM61 °FSunny.18 mph36%30.12 "Hg10 mi
3:00 PM61 °FSunny.23 mph36%30.15 "Hg10 mi
2:00 PM63 °FSunny.25 mph32%30.15 "Hg10 mi
1:00 PM61 °FSunny.18 mph36%30.18 "Hg10 mi
12:00 PM59 °FSunny.14 mph39%30.21 "Hg10 mi
11:00 AM55 °FSunny.7 mph44%30.24 "Hg4 mi
10:00 AM45 °FSunny.No wind71%30.24 "Hg4 mi
9:00 AM45 °FSunny.5 mph71%30.21 "Hg2 mi
8:00 AM39 °FFog.No wind87%30.21 "Hg2 mi
7:00 AM37 °FFog.No wind87%30.21 "Hg2 mi
6:00 AM39 °FFog.No wind87%30.18 "Hg2 mi
5:00 AM41 °FFog.No wind81%30.18 "Hg2 mi
4:00 AM41 °FHaze.No wind76%30.18 "Hg2 mi
3:00 AM43 °FPassing clouds.No wind76%30.21 "Hg2 mi
2:00 AM43 °FPassing clouds.No wind76%30.21 "Hg4 mi
1:00 AM45 °FPassing clouds.No wind71%30.21 "Hg4 mi
12:00 AM45 °FPassing clouds.5 mph66%30.21 "Hg4 mi
11:00 PM
Jan 29
45 °FPassing clouds.5 mph66%30.21 "Hg4 mi
10:00 PM48 °FPassing clouds.No wind62%30.21 "Hg4 mi
Weather by CustomWeather, © 2014

See weather overviewHow to use our weather pages